Location: La Tine
(46.4708°N, 7.0525°E)
Time: 16:39:25
(UTC+00:00)

OBJECT-B - Pass Details

Date: 18 September 2020
Orbit: 421 x 433 km, 97.0° (Epoch: 09 October)

Event Time Altitude Azimuth Distance (km) Brightness Sun altitude
Exits shadow 19:01:25 27° 71° (ENE) 846 1.8 -15.1°
Maximum altitude 19:01:27 27° 70° (ENE) 846 1.8 -15.1°
Drops below altitude 10° 19:04:16 10° 11° (N) 1,521 3.7 -15.6°
Sets 19:06:27 0° 359° (N) 2,394 4.9 -15.9°
